Simultaneous Nadir Overpasses (SNOs) Predictions

Prediction of SNOs near equator between AQUA and NPP Satellite Orbit:

Table of predicted SNOs near equator for the next 14.0 days since TLE Epoch: 10/12/2019
Index Date (AQUA) Time (AQUA) AQUA Lat,Lon Date (NPP) Time (NPP) NPP Lat,Lon Distance(km) Time Diff (sec)
1 10/13/2019 07:52:38 -5.64, -95.12 10/13/2019 07:42:48 -5.64, -95.24 13.52 590
2 10/13/2019 08:40:55 1.15, 73.45 10/13/2019 08:32:19 1.05, 73.08 43.31 516
3 10/13/2019 09:29:01 3.42,-117.91 10/13/2019 09:21:41 3.58,-118.56 73.45 440
4 10/16/2019 00:08:43 -4.19, 21.07 10/15/2019 23:59:17 -4.14, 20.86 23.55 566
5 10/16/2019 00:56:59 -0.35,-170.35 10/16/2019 00:48:48 -0.45,-170.82 53.49 491
6 10/16/2019 01:45:05 4.94, -1.71 10/16/2019 01:38:10 5.08, -2.45 83.47 415
7 10/18/2019 15:42:57 29.96, -36.63 10/18/2019 15:32:57 30.33, -37.04 56.36 600
8 10/18/2019 16:24:47 -2.68, 137.27 10/18/2019 16:15:46 -2.64, 136.96 33.94 541
9 10/18/2019 17:13:03 -1.86, -54.15 10/18/2019 17:05:17 -1.95, -54.72 63.83 466
10 10/18/2019 18:01:10 6.38, 114.47 10/18/2019 17:54:39 6.58, 113.65 93.47 391
11 10/21/2019 07:52:44 5.72, 84.84 10/21/2019 07:42:52 5.72, 84.71 14.17 592
12 10/21/2019 08:40:52 -1.24,-106.55 10/21/2019 08:32:15 -1.15,-106.94 44.16 517
13 10/21/2019 09:29:07 -3.35, 62.05 10/21/2019 09:21:45 -3.50, 61.40 73.95 442
14 10/24/2019 00:08:48 4.29,-158.98 10/23/2019 23:59:20 4.23,-159.19 24.31 568
15 10/24/2019 00:56:54 0.32, 9.66 10/24/2019 00:48:42 0.40, 9.18 54.44 492
16 10/24/2019 01:45:10 -4.84, 178.24 10/24/2019 01:38:13 -5.00, 177.50 84.12 417




NCC Satellite Simultaneous Nadir Overpasses (SNOs) Prediction Service
